Wind_Speed
15 15 15 16 16 17 16 16 16 18 19 19 19 20 20 21 22 22 23 23 24 24 25 26 26 26 27 27 28 28 27 28 28 28 27 26 26 26 24 22 23 24 23 22
15 15 16 16 17 17 16 15 15 17 18 18 18 19 19 19 19 20 21 22 23 23 24 24 25 26 27 27 27 27 27 27 28 28 28 27 26 26 25 25 24 23 22 21
14 15 16 16 16 16 15 15 15 16 17 18 18 17 17 17 18 19 21 21 22 23 23 24 25 26 26 27 27 27 27 28 28 28 29 29 28 28 27 25 25 24 24 23
16 16 16 16 15 15 14 15 16 17 17 16 16 16 16 18 19 20 21 20 21 22 23 23 24 25 25 26 27 27 26 27 27 28 28 28 28 27 26 25 25 25 24 23
16 16 15 15 14 14 14 15 16 17 16 16 16 17 16 18 19 20 21 21 21 22 22 23 24 25 25 26 26 26 26 26 27 28 28 28 28 27 27 26 25 25 24 23
17 16 14 14 14 14 15 15 16 16 15 15 16 17 16 17 17 19 20 21 22 23 24 23 24 24 24 24 24 25 25 25 26 26 27 27 27 27 27 26 25 24 24 23
16 15 14 14 14 14 14 14 15 15 14 15 15 16 16 16 17 18 20 21 22 22 21 22 22 21 22 22 23 24 24 25 25 26 26 26 26 26 26 26 26 25 25 24
16 16 15 14 14 14 13 13 14 14 14 14 15 16 16 16 17 17 17 18 19 19 19 20 20 21 21 21 22 22 23 25 25 26 26 26 26 25 25 25 25 25 25 25
16 16 14 14 14 14 14 14 14 14 14 14 14 15 14 15 15 16 16 17 18 18 19 18 19 20 20 21 22 23 23 24 24 25 25 25 25 24 25 24 25 26 26 25
15 15 15 15 14 14 15 14 14 15 16 15 14 14 14 15 16 16 17 17 18 18 19 19 19 20 21 21 22 23 24 24 24 25 25 24 24 23 24 25 26 25 26 26
15 15 16 15 15 15 15 15 15 15 16 16 15 15 15 16 16 17 17 17 18 19 20 20 20 21 22 22 22 22 23 23 23 23 23 23 23 23 24 24 25 25 26 27
15 16 16 16 15 15 15 15 15 16 16 16 16 15 16 17 17 18 18 18 19 20 20 20 21 21 21 22 22 22 22 22 22 22 22 23 23 23 24 24 24 24 24 24
15 16 15 15 15 14 14 14 15 16 16 16 17 16 17 17 18 19 19 20 20 21 22 22 22 22 22 21 21 21 21 22 22 22 22 22 23 23 23 23 24 23 23 23
15 15 15 15 15 15 15 15 15 16 17 17 17 18 18 19 19 19 20 20 21 21 21 22 22 22 22 22 21 21 21 21 22 22 22 22 22 22 22 22 23 22 22 23
14 14 14 14 14 14 14 15 15 16 17 18 18 18 19 20 20 20 20 21 21 21 21 22 22 23 23 22 21 21 21 21 21 21 21 20 19 19 20 20 20 21 22 22
14 13 13 12 12 12 12 13 14 15 16 16 17 18 19 19 19 19 20 21 22 22 22 22 23 22 21 20 20 20 20 20 19 18 19 18 17 17 18 18 18 18 19 20
14 13 13 12 12 12 12 13 13 14 15 15 17 17 17 18 19 19 20 21 21 22 22 22 21 20 19 19 18 17 17 16 15 15 15 15 15 16 16 16 16 17 18 18
13 13 13 12 11 11 10 11 13 14 14 15 16 17 17 18 18 19 20 21 21 21 21 20 18 17 16 16 15 15 14 13 13 12 13 12 13 14 14 15 15 16 16 16
13 13 12 11 11 9 10 11 12 12 13 14 15 16 17 18 19 19 20 20 20 19 18 18 17 16 14 13 13 13 13 11 11 11 11 11 11 11 11 12 13 14 14 14
11 11 10 10 11 11 10 10 11 11 12 13 14 15 16 17 18 18 18 18 18 17 16 15 14 13 12 11 11 10 9 9 9 9 9 9 9 9 10 10 11 11 12 13
9 9 9 10 11 10 10 10 10 10 10 11 13 14 15 17 17 18 17 17 16 15 13 12 12 10 10 9 8 7 7 7 7 7 7 7 8 8 9 9 8 9 9 10
8 8 9 10 10 10 10 10 10 9 10 11 12 14 15 16 16 16 16 15 14 12 11 10 9 8 6 5 5 4 4 4 4 5 5 5 6 6 6 6 6 7 7 7
7 8 8 8 9 9 9 9 9 9 11 11 12 13 13 14 15 14 13 12 11 10 8 7 5 4 4 3 3 2 2 2 2 2 2 2 3 2 3 4 4 4 4 4
6 7 7 7 8 8 8 8 8 9 10 11 11 11 12 13 13 12 11 10 9 7 5 4 3 3 2 1 1 1 1 1 1 1 1 2 2 2 2 3 2 2 2 2
6 7 7 7 7 7 7 7 7 8 8 9 10 10 11 11 11 11 10 9 8 6 5 4 3 3 2 2 2 2 2 3 3 4 4 4 5 5 6 6 6 5 4 4
7 7 7 7 6 6 6 6 5 6 7 8 8 9 10 10 10 10 9 8 7 6 6 5 5 5 5 5 5 5 6 6 6 6 6 7 8 8 9 9 8 8 7 6
Wind_Direction
234 232 230 229 229 229 229 230 232 236 241 244 247 250 252 256 258 260 263 266 271 271 270 271 272 273 273 273 272 272 272 272 272 272 271 270 270 270 271 272 271 271 268 266
227 226 226 227 229 230 230 230 231 237 243 247 251 255 258 260 261 265 268 270 274 275 276 275 275 275 275 274 273 273 272 272 272 271 269 268 270 271 273 270 269 273 274 272
222 222 225 227 230 232 232 229 232 239 245 250 256 259 260 264 268 271 274 275 276 277 278 278 277 276 275 275 274 274 274 273 272 270 269 268 268 270 272 269 268 270 271 273
218 222 225 228 231 235 233 233 235 243 250 254 260 263 266 270 271 274 277 278 279 278 279 279 278 278 277 275 274 273 273 273 272 271 269 269 269 269 267 267 266 266 266 266
218 222 225 229 235 238 238 239 241 246 251 256 263 269 274 279 278 279 280 281 282 280 280 278 278 278 276 273 272 272 272 273 273 272 270 269 270 269 267 266 263 263 262 263
217 223 226 230 235 239 240 242 245 248 253 260 268 273 281 286 284 282 285 285 284 284 283 280 279 279 276 275 274 273 272 274 273 272 272 271 269 267 267 266 264 265 263 262
214 220 225 231 236 242 244 246 249 253 260 268 274 278 288 289 288 286 288 287 288 288 284 282 280 280 279 275 275 275 273 272 272 273 272 272 270 268 266 265 265 264 263 262
216 219 225 231 238 244 247 252 258 264 269 273 277 283 291 291 291 291 292 292 290 291 290 288 283 283 283 279 276 275 273 272 272 272 271 270 268 265 263 262 262 262 261 259
218 220 227 233 240 245 252 257 262 269 275 278 280 285 289 290 293 292 293 292 292 292 293 291 287 286 285 281 277 276 276 274 273 272 271 270 266 264 261 258 258 258 256 255
219 220 227 235 241 247 254 260 264 271 280 281 283 288 292 293 296 295 294 293 294 293 292 292 290 289 286 283 281 278 277 275 273 273 271 269 265 262 259 257 256 256 255 253
221 223 229 237 241 248 256 261 266 274 281 286 287 293 299 299 298 299 295 293 294 294 292 292 291 289 286 284 282 279 277 276 274 271 268 266 263 261 259 257 256 256 257 255
227 230 234 240 246 253 260 265 270 275 281 285 291 300 301 301 301 299 295 293 295 297 296 295 293 291 288 285 282 278 275 273 272 271 268 265 263 262 260 259 258 259 259 259
231 236 238 242 249 258 262 265 270 277 282 288 293 302 302 301 300 299 297 295 295 296 295 294 292 290 287 285 282 278 275 272 270 269 269 267 265 263 261 259 259 260 260 260
233 237 240 246 253 259 264 268 273 280 287 289 292 296 298 300 301 299 298 296 295 296 295 295 293 290 287 284 281 278 275 273 270 268 268 266 264 262 260 260 259 257 257 258
232 235 240 248 254 259 265 270 275 281 288 292 294 295 297 299 300 299 298 296 295 296 295 294 294 290 285 283 281 278 276 276 274 269 266 263 261 259 257 259 258 256 256 258
230 235 240 249 257 261 267 272 278 282 286 292 295 298 298 299 298 298 298 297 297 298 296 295 295 291 286 284 282 280 279 278 275 269 264 262 260 257 258 258 260 260 258 260
238 242 247 255 263 265 271 277 282 286 287 293 298 300 301 300 298 298 298 299 299 299 298 296 293 290 286 284 284 283 281 276 272 270 265 262 261 258 257 257 257 257 260 261
244 248 251 257 266 269 273 276 282 287 290 295 299 300 301 301 300 300 300 300 300 300 298 295 292 291 288 287 285 283 281 278 271 265 263 264 263 261 261 262 257 255 258 259
243 247 251 256 261 269 273 277 283 289 294 297 299 301 301 302 303 303 302 302 302 300 298 294 291 291 289 288 285 284 281 279 272 267 266 269 269 266 265 265 261 256 258 260
242 247 252 259 265 272 276 281 286 292 295 297 301 304 306 306 306 306 304 304 305 304 300 296 293 291 289 290 288 286 282 279 274 269 268 268 268 266 266 264 264 265 267 269
242 249 255 263 271 276 282 286 290 295 301 303 308 310 309 310 310 309 308 308 309 307 302 296 293 290 289 289 288 288 284 277 271 264 265 267 271 276 273 272 270 270 271 270
244 252 261 267 268 273 280 284 284 292 301 306 310 313 313 315 315 315 314 313 314 311 307 302 294 289 291 296 298 295 288 285 275 266 269 277 280 283 279 277 281 281 274 275
249 255 263 268 269 274 278 280 281 289 300 306 312 316 319 322 323 323 323 323 324 320 313 310 303 299 307 306 307 306 303 306 309 288 281 300 301 298 302 304 299 295 287 288
255 261 269 272 269 275 277 278 282 290 303 310 316 322 327 330 332 333 337 341 342 340 341 340 328 322 322 329 328 317 317 332 4 42 71 52 48 48 27 19 17 24 28 17
268 268 265 267 267 268 272 278 285 294 306 315 324 331 335 338 343 348 353 359 6 13 26 26 28 31 54 79 82 79 80 90 91 92 84 75 73 67 61 60 64 66 67 57
267 266 264 262 264 266 271 278 288 302 312 320 331 341 346 350 358 5 10 18 28 39 48 52 63 69 82 89 86 87 91 90 95 95 90 84 78 73 70 69 69 69 70 68
Height
5789 5792 5793 5794 5796 5798 5800 5802 5804 5805 5806 5807 5808 5809 5810 5810 5811 5811 5812 5812 5812 5812 5812 5812 5812 5812 5812 5813 5813 5813 5814 5814 5814 5815 5815 5815 5815 5816 5816 5816 5817 5818 5818 5818
5787 5789 5790 5792 5794 5796 5798 5800 5801 5802 5803 5804 5804 5805 5806 5806 5806 5807 5807 5807 5807 5806 5806 5806 5806 5806 5806 5806 5807 5807 5807 5808 5808 5809 5809 5809 5810 5810 5811 5812 5812 5812 5812 5813
5784 5787 5788 5790 5792 5794 5796 5798 5799 5800 5800 5800 5801 5802 5802 5803 5803 5803 5803 5802 5802 5801 5801 5800 5800 5800 5800 5800 5800 5801 5801 5801 5801 5802 5803 5803 5804 5805 5805 5806 5806 5806 5807 5807
5781 5784 5786 5788 5790 5792 5794 5795 5796 5797 5797 5797 5798 5798 5799 5799 5799 5798 5798 5797 5797 5796 5795 5794 5794 5794 5794 5794 5794 5794 5794 5794 5795 5795 5796 5797 5797 5798 5798 5799 5799 5800 5800 5801
5779 5782 5784 5786 5788 5790 5791 5792 5793 5794 5794 5795 5795 5795 5796 5795 5794 5794 5793 5793 5792 5791 5790 5789 5788 5788 5787 5788 5788 5788 5788 5788 5788 5789 5789 5790 5790 5791 5791 5792 5793 5794 5794 5795
5778 5780 5783 5785 5786 5788 5789 5790 5791 5791 5792 5792 5792 5792 5792 5791 5790 5789 5788 5788 5787 5786 5784 5783 5783 5782 5782 5781 5781 5782 5782 5782 5782 5782 5782 5782 5783 5784 5784 5785 5786 5787 5788 5789
5776 5779 5781 5783 5784 5786 5787 5789 5789 5789 5789 5790 5789 5789 5790 5788 5787 5785 5784 5783 5781 5780 5779 5778 5777 5777 5776 5775 5775 5775 5775 5775 5775 5775 5775 5775 5776 5777 5777 5779 5779 5780 5781 5783
5775 5777 5779 5781 5782 5784 5785 5786 5787 5787 5787 5787 5786 5785 5787 5785 5783 5781 5780 5778 5777 5775 5774 5772 5771 5771 5770 5769 5769 5769 5768 5768 5768 5768 5768 5769 5769 5770 5771 5771 5772 5774 5775 5776
5773 5776 5777 5779 5780 5782 5782 5783 5784 5784 5783 5784 5783 5783 5783 5781 5779 5778 5776 5774 5773 5771 5769 5767 5767 5766 5765 5764 5763 5763 5762 5762 5761 5761 5762 5762 5762 5763 5763 5765 5766 5767 5768 5769
5771 5774 5775 5777 5778 5779 5780 5781 5781 5781 5780 5780 5780 5780 5779 5777 5776 5774 5772 5770 5769 5767 5765 5763 5762 5761 5759 5758 5758 5757 5756 5756 5756 5755 5755 5755 5756 5756 5757 5758 5759 5760 5761 5762
5769 5772 5774 5775 5775 5776 5777 5778 5777 5777 5777 5777 5776 5779 5776 5774 5772 5771 5769 5767 5765 5763 5760 5759 5757 5755 5754 5753 5752 5751 5750 5750 5749 5749 5749 5749 5749 5750 5750 5751 5752 5753 5754 5755
5766 5769 5770 5772 5773 5773 5774 5774 5775 5775 5774 5773 5773 5776 5772 5770 5768 5766 5764 5762 5760 5758 5755 5753 5752 5750 5748 5747 5746 5745 5744 5744 5743 5743 5743 5743 5743 5744 5744 5745 5746 5747 5747 5748
5764 5766 5768 5770 5772 5772 5772 5772 5772 5771 5771 5770 5769 5772 5768 5766 5764 5762 5760 5758 5755 5753 5750 5748 5746 5744 5743 5741 5740 5739 5738 5738 5737 5737 5737 5737 5737 5738 5738 5739 5739 5740 5741 5742
5762 5764 5766 5768 5768 5768 5769 5769 5768 5768 5768 5767 5766 5766 5764 5761 5759 5757 5755 5753 5751 5748 5746 5743 5741 5739 5737 5736 5734 5733 5733 5732 5731 5731 5731 5731 5731 5732 5732 5733 5733 5734 5735 5736
5759 5761 5763 5764 5765 5765 5766 5766 5765 5765 5764 5763 5763 5761 5760 5757 5755 5753 5750 5748 5745 5743 5740 5738 5735 5733 5732 5730 5729 5728 5727 5726 5725 5725 5725 5725 5726 5726 5726 5727 5727 5728 5729 5730
5757 5758 5760 5761 5761 5762 5762 5762 5762 5761 5760 5760 5758 5757 5755 5753 5750 5748 5745 5743 5740 5738 5735 5732 5730 5728 5726 5724 5723 5722 5721 5720 5720 5719 5720 5720 5721 5721 5722 5722 5722 5723 5724 5724
5754 5756 5757 5758 5759 5759 5760 5760 5758 5758 5757 5756 5755 5754 5750 5748 5746 5743 5741 5738 5735 5732 5730 5727 5724 5722 5721 5719 5718 5717 5716 5715 5715 5715 5715 5715 5716 5717 5717 5717 5718 5719 5719 5720
5752 5753 5755 5756 5757 5757 5759 5756 5755 5755 5754 5753 5751 5749 5746 5744 5741 5739 5736 5733 5730 5727 5724 5722 5720 5718 5716 5715 5714 5713 5712 5711 5711 5711 5712 5712 5712 5712 5713 5713 5714 5714 5715 5715
5750 5751 5752 5753 5754 5755 5755 5754 5753 5752 5751 5749 5747 5745 5742 5740 5737 5734 5731 5728 5725 5722 5719 5717 5715 5714 5712 5711 5710 5709 5709 5708 5708 5708 5708 5709 5709 5709 5709 5710 5710 5711 5711 5711
5748 5749 5751 5751 5751 5752 5753 5751 5750 5750 5748 5746 5743 5741 5739 5736 5733 5731 5727 5723 5720 5717 5715 5713 5711 5710 5709 5708 5707 5706 5706 5706 5706 5706 5706 5706 5706 5706 5706 5707 5707 5708 5708 5708
5746 5747 5748 5749 5749 5749 5749 5748 5748 5748 5746 5743 5740 5738 5735 5733 5730 5727 5723 5720 5716 5714 5711 5710 5708 5707 5706 5706 5705 5704 5704 5704 5704 5704 5704 5704 5704 5704 5704 5704 5705 5705 5705 5706
5745 5746 5746 5747 5747 5749 5746 5745 5745 5745 5742 5740 5738 5735 5732 5729 5726 5722 5719 5716 5713 5711 5709 5707 5706 5705 5705 5704 5703 5703 5703 5702 5702 5702 5702 5703 5703 5703 5702 5703 5703 5703 5703 5703
5743 5744 5744 5745 5747 5745 5744 5743 5743 5742 5740 5738 5735 5733 5729 5726 5723 5720 5717 5714 5711 5709 5707 5706 5705 5704 5703 5703 5703 5702 5702 5702 5702 5702 5702 5702 5702 5702 5702 5702 5702 5702 5702 5702
5742 5742 5743 5743 5743 5742 5742 5741 5741 5739 5738 5736 5733 5730 5727 5724 5721 5718 5715 5712 5710 5708 5706 5705 5704 5703 5703 5702 5702 5702 5702 5702 5702 5702 5702 5702 5702 5702 5702 5701 5701 5701 5701 5701
5740 5741 5741 5741 5741 5740 5740 5739 5739 5738 5736 5734 5732 5729 5726 5723 5720 5717 5714 5712 5710 5708 5706 5705 5704 5704 5703 5703 5703 5703 5702 5703 5703 5703 5703 5703 5703 5703 5702 5702 5702 5702 5702 5702
5739 5739 5739 5739 5739 5739 5739 5738 5737 5736 5735 5733 5731 5728 5725 5722 5720 5717 5714 5712 5710 5709 5707 5706 5706 5705 5704 5704 5704 5704 5704 5704 5705 5705 5705 5705 5705 5704 5704 5704 5703 5703 5703 5703